Overview Statistics Trail Chart Weather Telemetry Raw packets
 

This is the latest recevied weather packets stored in our database for station/object WX5RP. If no packets are shown the sender has not sent any weather packets the latest 10 day(s).

<< 17 18 19 20 21 22 23 >>
Time Temp. Humidity Pressure Rain* Wind** Luminosity Snow
1777729516 3.33° C 77% 1015.5 hPa 0 mm - 48 W/m² -
1777728916 3.33° C 79% 1015.7 hPa 0 mm - 39 W/m² -
1777728316 2.78° C 80% 1015.9 hPa 0 mm - 26 W/m² -
1777727716 2.78° C 79% 1015.9 hPa 0 mm - 13 W/m² -
1777727116 2.22° C 79% 1016.1 hPa 0 mm - 2 W/m² -
1777726516 2.22° C 79% 1015.7 hPa 0 mm - 0 W/m² -
1777725916 2.78° C 78% 1016 hPa 0 mm - 0 W/m² -
1777725316 3.33° C 78% 1015.8 hPa 0 mm - 0 W/m² -
1777724716 3.89° C 77% 1015.9 hPa 0 mm - 0 W/m² -
1777724116 3.89° C 76% 1015.9 hPa 0 mm - 0 W/m² -
1777723516 3.89° C 77% 1016.1 hPa 0 mm - 0 W/m² -
1777722916 3.33° C 77% 1016 hPa 0 mm - 0 W/m² -
1777722316 2.78° C 76% 1015.7 hPa 0 mm - 0 W/m² -
1777721715 2.78° C 75% 1015.9 hPa 0 mm - 0 W/m² -
1777721115 2.22° C 75% 1016.1 hPa 0 mm - 0 W/m² -
1777720515 2.78° C 74% 1016.4 hPa 0 mm - 0 W/m² -
1777719915 3.33° C 75% 1015.8 hPa 0 mm - 0 W/m² -
1777719316 3.33° C 75% 1015.9 hPa 0 mm - 0 W/m² -
1777718715 3.33° C 75% 1015.8 hPa 0 mm - 0 W/m² -
1777718115 2.78° C 74% 1015.5 hPa 0 mm - 0 W/m² -
1777717515 2.78° C 71% 1015.1 hPa 0 mm - 0 W/m² -
1777716915 3.89° C 69% 1015.4 hPa 0 mm - 0 W/m² -
1777716315 3.33° C 71% 1015.5 hPa 0 mm - 0 W/m² -
1777715715 3.33° C 70% 1015.5 hPa 0 mm - 0 W/m² -
1777715117 3.33° C 68% 1015.5 hPa 0 mm - 0 W/m² -

* Rain latest hour (hover to see other rain measurements)
** Current wind speed in m/s (hover to see current wind gust speed)